sat.trackr.live / text

‹ back to catalog

COSMOS 2386

NORAD 27057 · 2001-058C

PAYLOAD ACTIVE UNKNOWN

§ Identity

Operator
Country
CIS
Launch date
2001-12-28
Launch site
PLMSC
Launch vehicle
Mass (kg)
RCS (m²)
0.90

External: N2YO · Heavens-Above · Gunter

§ Orbital elements

Epoch: 2026-09-19T03:26:54.748608Z

Period
114.14 min
Inclination
82.5470°
Eccentricity
0.0000826
Mean motion
12.61617606 rev/d
Perigee alt
1,415.6 km
Apogee alt
1,416.9 km
Semi-major
7,794.4 km
B*
-1.4226e-5
RAAN
154.0425°
Arg perigee
78.8792°
Mean anomaly
281.2391°
Rev number
13,835

§ Raw data

COSMOS 23861 27057U 01058C   26262.14368922  .00000008  00000+0 -14226-4 0  99952 27057  82.5470 154.0425 0000826  78.8792 281.2391 12.61617606138359

JSON: /api/v1/satellites/27057 · /tle

For live sub-satellite position, see the globe view (requires WebGL).

§ Visibility from observer

Set your observer location to see the next 7 days of passes ≥ 10°. The values pass through the URL so the page stays shareable.

No JS? Fill the form by hand. The geolocation button needs JavaScript.